• In Belarus
  • List of Countries
  • For 7 days
  • Water Temperature
  • Satellite Maps
  • Weather Map
  • Weather Widgets
  • user-avatar
    Login

    Hourly Weather Yulara

    Today, 18 February, Sunday

    Time Temperature Precipitation Wind Pressure Humidity
    00:00 +34°C° 0.1 mm 3 mps 714 mmHg 38%
    01:00 +34°C° 0.5 mm 3 mps 714 mmHg 40%
    02:00 +33°C° 0.5 mm 3 mps 713 mmHg 42%
    03:00 +32°C° 0 mm 2 mps 713 mmHg 43%
    04:00 +31°C° 0.2 mm 2 mps 713 mmHg 43%
    05:00 +31°C° 0.2 mm 2 mps 713 mmHg 43%
    06:00 +31°C° 0.2 mm 2 mps 714 mmHg 44%
    07:00 +32°C° 0 mm 2 mps 714 mmHg 41%
    08:00 +34°C° 0 mm 3 mps 714 mmHg 38%
    09:00 +36°C° 0 mm 3 mps 715 mmHg 34%
    10:00 +36°C° 0 mm 2 mps 714 mmHg 32%
    11:00 +36°C° 0 mm 1 mps 714 mmHg 30%
    12:00 +35°C° 0 mm 0 mps 714 mmHg 28%
    13:00 +37°C° 0.1 mm 1 mps 714 mmHg 28%
    14:00 +37°C° 0.1 mm 1 mps 713 mmHg 27%
    15:00 +37°C° 0.1 mm 1 mps 713 mmHg 27%
    16:00 +37°C° 0.1 mm 1 mps 713 mmHg 28%
    17:00 +37°C° 0.1 mm 2 mps 713 mmHg 30%
    18:00 +37°C° 0.1 mm 2 mps 713 mmHg 31%
    19:00 +37°C° 0 mm 2 mps 713 mmHg 32%
    20:00 +36°C° 0 mm 3 mps 714 mmHg 34%
    21:00 +36°C° 0 mm 3 mps 714 mmHg 35%
    22:00 +35°C° 0.3 mm 4 mps 714 mmHg 38%
    23:00 +34°C° 0.3 mm 5 mps 714 mmHg 41%

    Tomorrow, 19 February, Monday

    Time Temperature Precipitation Wind Pressure Humidity
    00:00 +33°C° 0.3 mm 6 mps 714 mmHg 45%
    01:00 +32°C° 0 mm 6 mps 713 mmHg 48%
    02:00 +32°C° 0 mm 5 mps 713 mmHg 51%
    03:00 +30°C° 0 mm 5 mps 713 mmHg 54%
    04:00 +30°C° 0 mm 5 mps 713 mmHg 54%
    05:00 +30°C° 0 mm 4 mps 713 mmHg 54%
    06:00 +30°C° 0 mm 3 mps 713 mmHg 54%
    07:00 +32°C° 0 mm 4 mps 713 mmHg 48%
    08:00 +34°C° 0 mm 5 mps 714 mmHg 41%
    09:00 +36°C° 0 mm 5 mps 714 mmHg 35%
    10:00 +37°C° 0 mm 5 mps 714 mmHg 31%
    11:00 +40°C° 0 mm 4 mps 714 mmHg 26%
    12:00 +41°C° 0 mm 4 mps 713 mmHg 22%
    13:00 +42°C° 0 mm 4 mps 713 mmHg 21%
    14:00 +42°C° 0 mm 3 mps 712 mmHg 20%
    15:00 +43°C° 0 mm 3 mps 711 mmHg 18%
    16:00 +42°C° 0 mm 4 mps 711 mmHg 20%
    17:00 +42°C° 0 mm 4 mps 711 mmHg 21%
    18:00 +41°C° 0 mm 5 mps 711 mmHg 22%
    19:00 +40°C° 0 mm 5 mps 712 mmHg 25%
    20:00 +39°C° 0 mm 5 mps 712 mmHg 28%
    21:00 +38°C° 0 mm 6 mps 712 mmHg 31%
    22:00 +37°C° 0 mm 5 mps 712 mmHg 32%
    23:00 +36°C° 0 mm 5 mps 712 mmHg 34%

    Day after tomorrow, 20 February, Tuesday

    Time Temperature Precipitation Wind Pressure Humidity
    00:00 +36°C° 0 mm 5 mps 712 mmHg 35%
    01:00 +35°C° 0 mm 5 mps 712 mmHg 36%
    02:00 +35°C° 0 mm 5 mps 712 mmHg 36%
    03:00 +34°C° 0 mm 5 mps 712 mmHg 37%
    04:00 +33°C° 0 mm 4 mps 712 mmHg 39%
    05:00 +32°C° 0 mm 2 mps 712 mmHg 42%
    06:00 +31°C° 0 mm 1 mps 713 mmHg 44%
    07:00 +32°C° 0 mm 1 mps 713 mmHg 42%
    08:00 +33°C° 0 mm 1 mps 714 mmHg 40%
    09:00 +32°C° 0 mm 0 mps 714 mmHg 38%
    10:00 +35°C° 0 mm 1 mps 714 mmHg 36%
    11:00 +37°C° 0 mm 2 mps 713 mmHg 33%
    12:00 +38°C° 0 mm 3 mps 713 mmHg 31%
    13:00 +39°C° 0 mm 3 mps 713 mmHg 29%
    14:00 +40°C° 0 mm 4 mps 712 mmHg 27%
    15:00 +41°C° 0 mm 4 mps 712 mmHg 26%
    16:00 +41°C° 0 mm 4 mps 712 mmHg 26%
    17:00 +40°C° 0 mm 4 mps 712 mmHg 27%
    18:00 +40°C° 0 mm 4 mps 712 mmHg 28%
    19:00 +38°C° 0 mm 4 mps 712 mmHg 30%
    20:00 +37°C° 0 mm 4 mps 712 mmHg 32%
    21:00 +36°C° 0 mm 4 mps 713 mmHg 35%
    22:00 +36°C° 0 mm 4 mps 713 mmHg 36%
    23:00 +35°C° 0 mm 4 mps 712 mmHg 37%

    21 February, Wednesday

    Time Temperature Precipitation Wind Pressure Humidity
    00:00 +35°C° 0 mm 4 mps 712 mmHg 38%
    01:00 +34°C° 0.1 mm 3 mps 712 mmHg 41%
    02:00 +33°C° 0.1 mm 3 mps 712 mmHg 44%
    03:00 +33°C° 0.1 mm 3 mps 711 mmHg 48%
    04:00 +31°C° 0.1 mm 3 mps 711 mmHg 49%
    05:00 +31°C° 0.1 mm 2 mps 712 mmHg 51%
    06:00 +31°C° 0.1 mm 2 mps 712 mmHg 53%
    07:00 +32°C° 0 mm 2 mps 712 mmHg 49%
    08:00 +34°C° 0 mm 2 mps 713 mmHg 45%
    09:00 +35°C° 0 mm 2 mps 713 mmHg 40%
    10:00 +36°C° 0 mm 2 mps 713 mmHg 36%
    11:00 +36°C° 0 mm 1 mps 712 mmHg 33%
    12:00 +37°C° 0 mm 1 mps 712 mmHg 29%
    13:00 +39°C° 0 mm 2 mps 711 mmHg 27%
    14:00 +40°C° 0 mm 2 mps 711 mmHg 25%
    15:00 +41°C° 0 mm 2 mps 710 mmHg 24%
    16:00 +40°C° 0 mm 3 mps 710 mmHg 24%
    17:00 +40°C° 0 mm 3 mps 710 mmHg 24%
    18:00 +40°C° 0 mm 3 mps 710 mmHg 24%
    19:00 +39°C° 0 mm 3 mps 711 mmHg 25%
    20:00 +39°C° 0 mm 3 mps 711 mmHg 26%
    21:00 +38°C° 0 mm 2 mps 712 mmHg 27%
    22:00 +37°C° 0 mm 3 mps 712 mmHg 28%
    23:00 +37°C° 0 mm 3 mps 712 mmHg 29%

    22 February, Thursday

    Time Temperature Precipitation Wind Pressure Humidity
    00:00 +36°C° 0 mm 4 mps 711 mmHg 29%
    01:00 +36°C° 0 mm 4 mps 711 mmHg 30%
    02:00 +35°C° 0 mm 4 mps 711 mmHg 30%
    03:00 +35°C° 0 mm 4 mps 711 mmHg 30%
    04:00 +35°C° 0 mm 3 mps 711 mmHg 31%
    05:00 +34°C° 0 mm 3 mps 711 mmHg 32%
    06:00 +34°C° 0 mm 3 mps 712 mmHg 32%
    07:00 +35°C° 0 mm 3 mps 712 mmHg 31%
    08:00 +36°C° 0 mm 4 mps 713 mmHg 29%
    09:00 +37°C° 0 mm 5 mps 713 mmHg 28%
    10:00 +38°C° 0 mm 4 mps 713 mmHg 26%
    11:00 +39°C° 0 mm 3 mps 712 mmHg 24%
    12:00 +40°C° 0 mm 2 mps 712 mmHg 22%
    13:00 +41°C° 0 mm 2 mps 712 mmHg 21%
    14:00 +41°C° 0 mm 2 mps 711 mmHg 20%
    15:00 +42°C° 0 mm 1 mps 711 mmHg 19%
    16:00 +41°C° 0 mm 2 mps 711 mmHg 20%
    17:00 +42°C° 0 mm 3 mps 711 mmHg 21%
    18:00 +42°C° 0 mm 4 mps 711 mmHg 21%
    19:00 +41°C° 0 mm 5 mps 712 mmHg 23%
    20:00 +41°C° 0 mm 5 mps 712 mmHg 26%
    21:00 +40°C° 0 mm 6 mps 712 mmHg 28%
    22:00 +39°C° 0.2 mm 7 mps 712 mmHg 31%
    23:00 +38°C° 0.2 mm 8 mps 712 mmHg 33%

    23 February, Friday

    Time Temperature Precipitation Wind Pressure Humidity
    00:00 +37°C° 0.2 mm 9 mps 712 mmHg 36%
    01:00 +35°C° 0.1 mm 8 mps 712 mmHg 37%
    02:00 +34°C° 0.1 mm 8 mps 712 mmHg 37%
    03:00 +34°C° 0.1 mm 8 mps 712 mmHg 38%
    04:00 +33°C° 0 mm 8 mps 712 mmHg 41%
    05:00 +32°C° 0 mm 8 mps 713 mmHg 44%
    06:00 +32°C° 0 mm 8 mps 713 mmHg 48%
    07:00 +33°C° 0 mm 7 mps 713 mmHg 45%
    08:00 +34°C° 0 mm 7 mps 714 mmHg 43%
    09:00 +35°C° 0 mm 7 mps 714 mmHg 40%
    10:00 +36°C° 0 mm 6 mps 714 mmHg 36%
    11:00 +39°C° 0 mm 5 mps 714 mmHg 31%
    12:00 +40°C° 0 mm 4 mps 713 mmHg 27%
    13:00 +41°C° 0 mm 4 mps 713 mmHg 25%
    14:00 +40°C° 0 mm 3 mps 712 mmHg 24%
    15:00 +42°C° 0 mm 3 mps 712 mmHg 23%
    16:00 +41°C° 0 mm 4 mps 712 mmHg 24%
    17:00 +41°C° 0 mm 5 mps 712 mmHg 25%
    18:00 +41°C° 0 mm 5 mps 712 mmHg 26%
    19:00 +40°C° 0 mm 6 mps 713 mmHg 29%
    20:00 +39°C° 0 mm 7 mps 713 mmHg 32%
    21:00 +38°C° 0 mm 8 mps 713 mmHg 36%
    22:00 +37°C° 0.2 mm 8 mps 713 mmHg 37%
    23:00 +35°C° 0.2 mm 7 mps 713 mmHg 39%
    Show more